Theta_e
320 321 322 323 324 325 325 326 327 327 327 325 324 323 322 321 322 322 322 320 317 315 314 313 312 311 311 312 311 311 311 310 309 307 304 302 300 299 298 298 298 297
320 321 322 324 325 326 327 327 327 327 326 325 323 322 322 322 322 321 321 318 316 314 313 311 311 312 311 311 310 310 309 307 305 303 301 299 298 298 298 297 297 297
320 321 322 324 325 327 328 328 327 326 325 324 324 323 322 321 320 321 320 317 315 313 312 311 311 311 311 310 309 308 306 304 302 300 299 298 298 298 297 297 297 297
319 320 322 324 326 327 327 327 326 326 324 323 324 324 322 320 320 320 319 316 313 312 311 311 311 311 310 309 307 305 303 301 300 299 298 298 297 297 298 297 297 297
318 320 322 324 326 327 327 326 325 324 323 323 323 323 322 320 319 320 317 314 312 311 311 311 310 309 308 307 305 303 301 299 299 298 298 298 298 298 297 297 297 296
315 317 319 322 326 327 326 325 324 323 323 323 322 321 320 319 319 319 315 312 311 311 311 310 309 308 306 304 303 301 299 298 298 298 298 298 298 297 297 297 297 296
312 313 315 319 323 324 324 323 323 323 323 322 322 321 319 319 319 317 313 311 311 311 310 309 308 306 304 302 301 299 298 298 298 298 298 298 297 297 297 296 296 296
312 312 313 316 319 322 323 322 323 323 322 322 322 321 320 319 318 314 311 311 311 310 309 307 305 304 302 300 299 298 298 297 298 298 298 298 297 297 296 296 295 295
311 312 314 317 320 323 324 322 322 323 322 322 321 321 320 318 314 311 311 310 310 309 307 305 303 301 300 299 298 297 297 298 298 298 297 297 297 296 296 295 295 295
311 314 318 320 321 323 323 322 322 322 322 321 321 321 319 314 311 310 310 310 309 307 305 302 301 300 298 298 297 297 297 298 297 297 297 296 296 296 295 295 295 295
313 316 319 320 320 321 321 321 321 322 321 321 321 319 314 311 310 310 309 309 307 304 302 300 299 298 297 297 297 297 297 297 297 297 297 296 296 295 295 295 294 294
316 317 319 319 320 321 321 322 322 322 321 320 318 315 311 310 310 309 308 306 303 301 300 299 298 297 297 297 297 297 297 297 297 297 296 296 295 295 295 294 294 294
316 318 319 319 320 321 321 321 320 320 319 317 314 311 310 310 309 308 306 302 300 299 298 297 297 297 297 297 297 297 297 297 297 296 296 295 295 295 294 294 294 294
314 316 317 317 317 318 318 318 318 317 315 313 311 310 310 310 308 306 303 300 298 297 297 297 296 296 297 297 297 297 297 296 296 296 295 295 294 294 294 294 294 294
312 314 314 314 314 315 316 317 315 313 312 311 310 310 309 308 306 303 301 299 298 297 296 296 296 296 297 297 297 297 296 296 295 295 295 294 294 294 294 293 293 293
312 312 313 313 314 315 316 315 312 310 310 310 310 309 307 305 302 300 298 298 297 297 296 296 296 296 297 297 297 296 295 295 295 294 294 294 294 293 293 293 293 293
312 313 313 314 315 315 314 312 310 310 310 309 308 307 305 302 299 298 297 296 297 296 296 296 296 297 297 297 296 296 295 294 294 294 294 293 293 293 293 293 293 293
313 314 314 314 314 313 311 310 310 310 309 309 307 305 302 299 297 297 296 296 296 296 296 296 296 296 297 296 296 295 294 294 294 294 293 293 293 293 293 292 292 292
313 314 313 313 312 311 310 310 310 309 309 308 306 303 300 298 296 296 296 296 296 296 296 296 296 296 296 295 295 295 294 294 294 293 293 293 293 292 292 292 292 292
312 312 312 311 311 311 310 310 310 309 308 306 303 301 298 297 296 296 296 296 296 295 295 296 296 296 296 295 295 294 293 293 293 293 292 292 292 292 292 292 292 292
311 311 311 311 311 311 310 310 309 308 306 303 301 298 297 296 296 296 295 295 295 295 295 296 296 296 295 294 294 293 293 293 293 292 292 292 292 292 291 291 291 291
311 311 311 311 311 311 310 309 308 307 304 301 298 297 296 295 295 295 295 295 295 295 295 295 295 295 294 294 293 293 293 292 292 292 291 291 291 291 291 291 291 291
311 311 311 311 311 310 310 309 307 305 302 299 297 296 295 295 295 295 295 295 295 295 295 295 295 294 294 293 293 293 292 292 292 291 291 291 291 291 291 291 291 291
311 311 311 311 310 310 309 308 306 302 299 297 296 295 295 295 294 294 294 294 294 294 294 294 294 293 293 293 292 292 292 292 291 291 291 290 290 290 290 290 290 290
311 310 310 310 310 309 308 307 304 300 297 296 295 294 295 295 294 294 294 294 294 294 294 293 293 293 292 292 292 292 292 292 291 291 290 290 290 290 290 290 290 290
310 310 309 309 309 308 307 304 301 298 296 295 294 294 294 294 294 294 293 293 293 293 293 293 292 292 292 292 293 293 293 292 292 291 290 290 290 290 289 289 289 289
Wind_Speed
31 32 31 31 30 29 27 26 25 25 24 24 24 22 21 19 18 19 20 21 19 16 13 12 12 10 8 7 7 6 6 6 5 4 3 2 1 0 1 3 4 6
31 31 31 31 30 29 27 25 25 25 24 24 23 21 20 20 20 20 21 19 17 14 12 12 11 9 8 8 8 7 6 6 5 4 3 2 1 0 2 3 5 7
32 32 32 31 31 29 27 26 25 25 24 24 22 21 21 22 21 20 20 18 15 13 13 12 11 10 10 9 8 8 7 6 6 4 3 2 0 1 2 4 6 8
34 33 33 32 31 29 28 27 27 26 26 25 23 23 23 22 21 20 19 17 15 14 14 13 13 13 12 11 9 8 7 7 6 4 3 2 0 2 3 5 7 9
33 33 32 31 30 29 28 28 28 27 27 27 25 25 25 23 21 20 18 17 17 16 15 15 15 15 13 11 10 9 8 7 6 4 3 2 1 3 5 6 8 9
33 32 31 30 29 29 29 28 29 28 28 27 26 26 26 23 21 19 19 19 18 17 18 18 17 15 13 11 10 9 8 7 6 4 3 2 2 4 6 7 9 9
32 31 29 29 29 29 29 28 28 29 28 27 27 27 25 21 20 20 20 20 20 20 20 18 16 14 13 12 11 10 9 7 6 4 3 2 3 5 7 8 9 9
30 29 29 28 28 28 28 28 28 29 28 27 27 25 23 20 21 22 22 22 22 22 20 18 16 14 14 13 12 10 9 7 5 4 3 3 4 6 7 8 9 10
27 27 26 25 26 27 28 28 28 28 28 28 26 24 22 22 22 23 23 24 23 22 19 18 16 15 15 13 12 10 8 6 5 4 4 4 5 7 8 9 10 11
23 23 23 24 26 27 28 28 28 28 28 27 25 24 23 24 24 24 25 25 23 21 19 18 17 16 15 13 11 9 8 6 5 4 5 6 7 8 9 10 11 12
20 21 23 24 26 26 27 27 28 28 28 26 25 25 25 26 26 27 26 24 22 21 20 19 18 16 14 13 11 9 8 7 6 5 6 7 8 9 10 11 12 13
20 21 23 24 25 25 27 27 28 28 27 26 26 26 27 27 28 28 26 24 23 21 20 19 17 16 14 12 11 9 8 7 6 6 7 8 9 10 10 11 13 14
22 23 24 25 26 27 28 28 27 27 26 26 27 27 28 29 29 28 26 25 23 22 20 18 17 15 14 12 11 9 8 7 7 7 8 9 9 10 11 12 14 15
23 24 25 26 27 27 27 26 25 26 27 28 29 29 30 30 29 28 27 26 24 22 20 18 17 15 13 12 11 9 9 8 7 8 8 9 10 11 12 13 15 16
25 26 26 27 27 26 25 25 26 27 28 29 30 31 31 30 29 28 26 25 24 22 20 19 17 15 14 12 11 9 9 8 8 9 9 10 10 11 12 14 15 17
23 25 26 27 26 25 25 26 27 28 30 31 32 31 31 30 29 27 25 24 23 22 21 19 17 16 14 12 11 10 9 9 9 9 9 10 11 12 13 15 16 18
23 24 25 25 25 26 27 27 29 30 31 32 32 32 31 30 29 27 26 24 23 21 20 19 17 15 14 12 11 10 9 10 10 10 10 10 11 13 14 15 17 18
24 24 24 25 26 27 28 29 30 32 32 33 33 32 32 31 29 28 27 25 24 22 20 19 17 16 14 12 11 10 10 10 10 10 11 11 12 14 15 16 17 19
25 26 26 27 28 28 29 31 32 33 34 33 34 33 32 31 30 29 27 26 24 23 21 19 17 16 14 12 11 11 10 10 11 11 12 12 14 15 16 17 18 19
26 28 28 29 30 30 31 33 34 35 35 35 35 34 33 32 31 29 28 26 24 23 21 19 17 16 14 12 11 11 10 11 11 12 13 13 15 16 17 18 19 20
29 30 30 31 32 33 34 35 36 36 37 36 36 35 34 32 31 30 28 26 25 23 21 19 17 15 14 12 11 11 11 11 12 13 13 14 15 16 17 19 20 21
31 32 33 33 34 35 36 38 38 38 38 38 37 35 34 33 31 30 28 26 25 23 21 19 17 15 13 12 11 11 11 12 13 14 14 15 15 16 18 19 21 22
33 34 34 35 36 38 39 40 40 40 40 39 38 37 35 34 32 30 28 26 24 22 20 18 16 15 13 12 11 11 12 12 14 15 15 15 16 17 19 20 21 23
35 35 36 37 38 40 40 41 41 41 40 39 38 37 35 34 32 30 28 26 24 22 20 18 16 15 13 11 10 11 12 13 15 15 15 16 17 18 19 20 21 22
35 36 37 38 39 40 41 42 42 41 40 39 37 36 35 33 32 30 29 27 24 22 20 18 16 14 12 11 10 11 13 14 16 17 17 18 19 19 19 20 21 22
35 36 37 38 39 41 42 42 42 41 40 39 38 37 35 34 32 30 28 26 23 21 19 18 16 13 12 11 10 11 13 15 16 18 19 20 20 20 20 20 21 21
Wind_Direction
247 247 248 248 250 250 250 248 246 246 248 249 249 249 250 249 250 256 259 258 254 245 236 232 227 218 207 197 193 190 188 188 186 184 184 184 186 242 345 350 353 351
247 247 247 247 247 247 246 245 244 245 247 249 249 247 244 243 246 253 256 253 245 235 227 221 216 207 197 192 190 189 189 187 185 187 191 191 195 5 7 357 350 346
247 246 246 245 244 243 243 242 242 244 245 247 246 244 243 244 247 251 252 246 236 227 220 213 207 200 194 191 190 190 189 190 195 195 194 196 198 2 351 344 343 343
246 246 245 244 244 242 241 240 240 241 241 241 240 241 243 245 247 249 245 238 229 220 213 205 199 195 193 192 191 193 195 196 198 194 194 205 241 339 335 337 339 341
247 247 245 244 242 240 238 237 238 239 239 237 236 236 241 243 245 244 237 228 221 213 205 198 194 192 192 193 193 197 200 198 197 195 197 210 284 322 328 332 333 334
247 245 244 242 239 237 236 235 236 237 237 237 236 236 240 242 241 237 228 220 214 206 198 194 195 194 194 196 199 202 201 198 198 195 201 241 305 319 324 327 326 323
245 244 241 239 236 234 234 233 233 234 235 235 235 237 241 241 234 225 218 212 206 199 196 195 196 196 197 200 202 202 199 197 200 204 227 276 307 317 319 318 315 312
242 241 239 236 232 229 229 230 230 232 233 233 234 237 240 235 225 216 209 204 199 197 196 195 196 198 200 201 200 200 198 198 205 224 259 292 308 312 310 308 306 306
238 236 234 230 226 224 225 227 228 229 230 231 234 238 234 223 214 208 202 198 197 197 197 196 197 199 200 199 198 198 198 204 219 242 273 293 299 302 301 300 303 304
231 227 225 223 221 222 223 224 226 227 228 232 235 233 223 211 204 201 199 198 198 198 197 197 199 200 199 199 198 198 203 214 231 253 274 287 293 297 299 299 301 301
226 221 220 221 221 222 223 224 225 227 230 234 231 221 210 203 199 197 198 199 198 197 197 199 200 200 199 198 198 202 211 223 240 260 275 287 295 297 298 298 299 300
223 222 221 222 222 222 223 225 228 230 232 229 219 208 202 200 197 196 198 198 196 197 200 201 200 199 199 199 203 210 219 233 249 266 280 290 294 295 296 298 299 301
221 221 221 221 223 224 226 228 230 229 224 214 205 200 199 199 198 198 197 196 196 198 199 201 201 200 201 203 209 218 228 243 257 272 284 289 291 294 296 298 300 301
222 221 222 224 226 227 227 227 223 215 208 202 199 198 198 200 200 199 196 195 197 199 200 201 202 202 204 209 216 225 236 249 264 275 282 286 289 293 295 297 300 301
223 222 224 226 226 225 221 215 209 203 199 198 197 196 198 200 201 200 198 197 198 200 202 203 204 205 208 215 222 233 242 254 266 271 277 284 288 293 296 297 299 301
222 221 222 223 220 216 211 205 202 200 198 197 196 196 198 200 200 199 200 202 203 204 205 205 206 209 213 220 228 237 246 255 263 268 276 285 289 294 296 297 300 302
222 219 218 217 213 208 204 202 201 200 198 197 197 198 199 200 201 200 201 203 206 207 208 208 210 214 218 225 232 239 249 255 263 272 280 286 291 293 294 296 300 302
220 217 214 211 206 203 202 202 202 200 199 199 200 200 201 201 201 203 204 205 207 208 209 210 213 218 221 227 234 241 251 259 268 278 284 289 292 292 295 298 300 304
216 213 210 207 204 204 204 203 203 202 202 203 203 203 203 202 203 205 206 208 209 209 211 212 216 222 225 230 237 245 255 264 274 282 286 290 293 293 297 300 303 307
213 211 209 208 207 207 207 205 205 205 204 205 205 205 204 204 206 207 208 210 211 211 213 216 220 225 228 234 242 250 260 269 277 284 287 291 294 296 300 303 306 309
215 213 212 212 211 210 209 207 207 206 205 206 206 206 207 207 208 210 210 211 212 213 216 219 223 228 232 239 246 254 264 273 280 286 290 294 297 300 304 307 309 310
220 218 217 216 214 212 211 209 208 207 207 207 206 206 207 208 210 211 212 213 213 215 218 222 226 231 235 242 249 259 269 277 285 290 294 297 301 305 308 308 309 311
224 223 221 219 217 215 213 211 209 208 208 208 207 207 208 209 211 211 212 214 216 218 221 224 228 233 238 245 253 265 275 284 290 294 297 301 304 307 308 308 309 310
228 226 225 222 219 217 214 212 210 209 208 209 209 210 210 211 212 213 213 214 216 219 223 225 229 235 241 248 259 272 282 290 294 297 301 305 307 307 307 307 308 310
232 229 227 224 221 218 215 213 211 210 209 209 209 211 213 213 214 214 215 215 216 219 222 226 231 236 242 252 265 279 288 294 299 303 306 306 305 305 305 306 308 310
235 232 229 225 222 219 216 214 213 211 210 210 210 212 213 215 215 215 216 217 218 220 223 227 231 236 244 258 272 283 292 299 303 305 304 303 303 303 304 306 308 310